Regional Weather Roundup
Issued by NWS State College, PA

Home | Current Version | Previous Version | Graphics & Text | Print | Product List | Glossary Off
Versions: 1 2 3 4 5 6 7 8 9 10 11 12 13 14 15 16 17 18 19 20 21 22 23 24 25 26 27 28 29 30 31 32 33 34 35 36 37 38 39 40 41 42 43 44 45 46 47 48 49 50

000
ASUS41 KCTP 212203
RWRCTP

REGIONAL WEATHER ROUNDUP
NATIONAL WEATHER SERVICE STATE COLLEGE PA
500 PM EST TUE FEB 21 2017

Note: "fair" indicates few or no clouds below 12,000 feet with no
significant weather and/or obstructions to visibility.

* = STATION THAT DOES NOT REPORT PRECIPITATION /E.G. RAIN...SNOW...ETC/
    THUNDER OR FOG.

PAZ002>004-007>009-013>016-020>023-029>032-212300-
WESTERN PENNSYLVANIA

CITY           SKY/WX    TMP DP  RH WIND       PRES   REMARKS
ERIE           LGT RAIN  54  42  64 SW6       29.96R
MEADVILLE      CLOUDY    58  39  49 SW3       29.97S
FRANKLIN*      CLOUDY    59  39  47 S8        29.99F
NEW CASTLE     CLOUDY    63  43  48 CALM      29.98F
BEAVER COUNTY  PTSUNNY   63  41  45 SW6       29.99R
BUTLER*        CLOUDY    63  41  45 SW3       30.00R
PITTSBURGH INT CLOUDY    65  42  43 SW3       29.98S
PITTSBURGH     CLOUDY    64  39  39 SW6       29.98F
INDIANA*       PTCLDY    57  36  44 S6        30.03S
LATROBE        CLOUDY    63  37  39 S9        30.01S
WASHINGTON CO* CLOUDY    64  41  42 CALM      30.01R
$$

PAZ004>006-010>012-017>019-024>028-033>037-041-042-045-046-049>053-212300-
CENTRAL PENNSYLVANIA

CITY           SKY/WX    TMP DP  RH WIND       PRES   REMARKS
BRADFORD       CLOUDY    50  28  42 S9        30.00F
DUBOIS         CLOUDY    51  28  41 SE7       30.01S
CLEARFIELD       N/A    N/A N/A N/A MISG      30.05S
JOHNSTOWN      PTCLDY    48  31  51 S10       30.03S
ALTOONA        CLOUDY    50  32  50 S10       30.08S
STATE COLLEGE  CLEAR     48  28  46 S8        30.08F
WILLIAMSPORT   NOT AVBL
SELINSGROVE    NOT AVBL
FT INDIANTOWN  CLOUDY    48  26  41 SE6       30.15F
CAPITAL CITY   NOT AVBL
HARRISBURG     NOT AVBL
YORK           NOT AVBL
$$

PAZ038>040-043-044-047-048-054-055-060>062-067>071-212300-
EASTERN PENNSYLVANIA

CITY           SKY/WX    TMP DP  RH WIND       PRES   REMARKS
SCRANTON       NOT AVBL
MOUNT POCONO   NOT AVBL
ALLENTOWN      NOT AVBL
QUAKERTOWN*    CLOUDY    46  27  46 S7        30.18S
READING        NOT AVBL
LANCASTER      NOT AVBL
COATESVILLE    PTCLDY    45  34  65 SE8       30.18F
POTTSTOWN      NOT AVBL
BLUE BELL      CLOUDY    46  32  57 SW7       30.18F
DOYLESTOWN     NOT AVBL
WILLOW GROVE   NOT AVBL
NORTH PHILA    NOT AVBL
PHILADELPHIA   NOT AVBL
$$



USA.gov is the U.S. government's official web portal to all federal, state and local government web resources and services.